Simultaneous Nadir Overpasses (SNOs) Predictions

Prediction of SNOs between AQUA and GOES-15 Satellite Orbit:

Table of predicted SNOs for the next 14.0 days since TLE Epoch: 2/18/2023
Index Date Time (AQUA) AQUA Lat,Lon GOES-15 Lat,Lon Distance(km) Time Diff (sec)
1 02/18/2023 10:23:04 0.35,-129.47 0.09,-128.19 145.65 80
2 02/20/2023 10:09:42 -0.31,-126.21 0.09,-128.16 221.80 80
3 02/20/2023 22:30:47 -0.77,-131.32 -0.09,-128.16 359.57 80
4 02/22/2023 22:17:24 -0.10,-128.05 -0.09,-128.13 8.87 80
5 02/24/2023 22:04:02 0.62,-124.80 -0.09,-128.10 376.16 80
6 02/25/2023 10:24:57 0.50,-129.86 0.09,-128.09 202.60 80
7 02/27/2023 10:11:33 -0.23,-126.60 0.10,-128.05 165.37 80
8 02/27/2023 22:32:38 -0.87,-131.71 -0.10,-128.05 415.43 80
9 03/01/2023 22:19:12 -0.18,-128.43 -0.11,-128.01 47.71 80
10 03/03/2023 22:05:45 0.49,-125.15 -0.11,-127.96 320.08 80
